[[{"header":{"parameterUnit":"m.s-1","parameterCategory":1,"la1":30.2991,"la2":30.254,"lo1":-89.0895,"lo2":-89.0444,"dy":0.0017,"dx":0.0017,"nx":28,"ny":28,"refTime":"2023-09-20T09:00:00:Z","depth":0,"parameterNumber":2,"parameterNumberName":"U-component_of_WINDS"},"data":[0,0,0,0,0,0,0,0,0,0,0,0,0,0,0,0,0,0,0,0,0,0,0,0,0,0,0,0,0,0,0,0,0,0,0,0,0,0,0,0,0,0,0,0,0,0,0,0,0,0,0,0,0,0,0,0,0,0,-7.7233,-7.7235,0,-7.7336,-7.7337,-7.7338,-7.7227,-7.7223,-7.7218,-7.7214,-7.7313,-7.732,-7.7326,0,0,0,0,0,0,0,0,0,0,0,0,0,-7.6936,-7.6942,-7.7233,-7.7235,-7.7236,-7.7336,-7.7337,-7.7338,-7.7228,-7.7223,-7.7217,-7.7213,-7.7311,-7.7319,-7.7327,0,0,0,0,0,0,0,0,0,0,0,0,0,-7.7054,-7.6944,-7.7233,-7.7193,-7.719,-7.7335,-7.7337,-7.7339,-7.7229,-7.7222,-7.7216,-7.721,-7.7308,-7.7318,-7.7328,-7.7516,0,0,-7.7358,-7.7362,0,0,0,0,0,0,0,0,-7.7047,-7.7065,-7.7197,-7.7196,-7.7193,-7.7262,-7.7268,-7.7398,-7.723,-7.7214,-7.7214,-7.7207,-7.7301,-7.7311,-7.7344,-7.752,-7.7524,-7.7359,-7.7365,-7.7369,-7.7372,0,0,0,0,0,0,0,-7.7039,-7.706,-7.7274,-7.7199,-7.7197,-7.7168,-7.7177,-7.7292,-7.7292,-7.7215,-7.7207,-7.7221,-7.7298,-7.7335,-7.7345,-7.7526,-7.7358,-7.7367,-7.7373,-7.7377,-7.7858,-7.7865,0,0,0,0,0,0,-7.7037,-7.7054,-7.727,-7.7277,-7.7103,-7.7178,-7.7189,-7.7246,-7.729,-7.7291,-7.7226,-7.7216,-7.7321,-7.7334,-7.7348,-7.7568,-7.7369,-7.7378,-7.7384,-7.7852,-7.786,-7.7867,0,0,0,0,0,0,-7.7031,-7.7057,-7.7266,-7.7163,-7.7188,-7.719,-7.7255,-7.7252,-7.7288,-7.7299,-7.7297,-7.7264,-7.7317,-7.7335,-7.7475,-7.757,-7.7383,-7.7391,-7.7843,-7.7854,-7.7864,-7.8011,0,0,0,0,0,0,-7.7023,-7.7056,-7.7128,-7.7166,-7.7194,-7.7393,-7.7261,-7.7258,-7.7306,-7.7293,-7.7334,-7.7334,-7.7313,-7.7461,-7.7484,-7.758,-7.7399,-7.7835,-7.7848,-7.786,-7.7998,-7.8025,-7.8049,0,0,0,0,0,-7.7012,-7.7165,-7.7133,-7.7159,-7.7285,-7.7399,-7.7414,-7.7388,-7.7314,-7.7386,-7.7393,-7.7333,-7.7557,-7.7476,-7.7502,-7.7602,-7.7828,-7.7844,-7.7859,-7.7986,-7.802,-7.8048,0,0,0,0,0,0,-7.7136,-7.7169,-7.7133,-7.7303,-7.7349,-7.738,-7.7469,-7.7425,-7.7491,-7.7476,-7.7439,-7.745,-7.7598,-7.7614,-7.7523,-7.7785,-7.768,-7.7702,-7.7768,-7.78,-7.7825,-7.7815,-7.7407,0,0,0,0,0,-7.7184,-7.7275,-7.7299,-7.7446,-7.7471,-7.7467,-7.7515,-7.7492,-7.7537,-7.7555,-7.7572,-7.7617,-7.7697,-7.775,-7.7824,-7.8001,-7.8006,-7.8083,-7.8109,-7.813,-7.8147,-7.8238,-7.8272,-7.7918,-7.7918,-7.7918,0,0,-7.7282,-7.7311,-7.7371,-7.7472,-7.7504,-7.7597,-7.7484,-7.7587,-7.7655,-7.757,-7.7702,-7.7718,-7.7765,-7.7923,-7.7994,-7.7941,-7.8247,-7.8149,-7.8166,-7.8172,-7.8258,-7.8291,-7.8321,-7.7929,-7.7927,-7.7925,0,0,-7.7507,-7.7541,-7.7665,-7.7701,-7.7753,-7.7749,-7.778,-7.7818,-7.7824,-7.7958,-7.7896,-7.7975,-7.8115,-7.815,-7.8186,-7.8427,-7.8372,-7.8452,-7.8584,-7.8674,-7.8701,-7.8726,-7.8807,-7.8838,-7.8471,-7.8471,-7.8471,0,-7.7621,-7.7761,-7.7735,-7.7843,-7.7887,-7.7818,-7.7943,-7.7978,-7.8051,-7.8083,-7.8024,-7.8197,-7.8224,-7.8389,-7.8447,-7.8481,-7.8511,-7.8445,-7.87,-7.8724,-7.8747,-7.8824,-7.8855,-7.848,-7.8479,-7.8478,-7.8477,0,-7.7896,-7.7995,-7.8089,-7.8163,-7.8219,-7.8335,-7.8324,-7.8384,-7.8357,-7.8359,-7.8494,-7.8525,-7.8603,-7.8642,-7.8615,-7.8802,-7.8768,-7.8706,-7.8599,-7.879,-7.8861,-7.8891,-7.8493,-7.849,-7.8487,-7.8485,0,0,-7.8198,-7.8258,-7.8293,-7.8324,-7.8378,-7.8451,-7.8564,-7.8643,-7.8693,-7.8747,-7.8837,-7.8958,-7.8901,-7.8942,-7.892,-7.8999,-7.9183,-7.8927,-7.8927,-7.897,-7.9386,-7.9429,-7.9464,-7.915,-7.9156,-7.916,-7.9381,0,-7.8421,-7.8617,-7.8598,-7.8783,-7.8871,-7.8808,-7.8905,-7.8947,-7.8953,-7.9026,-7.9032,-7.9116,-7.9037,-7.9061,-7.9138,-7.9145,-7.9265,-7.9129,-7.923,-7.9234,-7.9215,-7.9502,-7.9548,-7.9755,-7.9409,-7.9414,-7.9418,0,-7.8706,-7.8771,-7.8966,-7.9004,-7.9041,-7.9129,-7.9198,-7.9272,-7.9317,-7.9316,-7.9363,-7.9327,-7.9437,-7.9333,-7.9482,-7.939,-7.943,-7.944,-7.9448,-7.9452,-7.9334,-7.951,-7.9821,-7.985,-7.9463,-7.9459,-7.9456,0,-7.8901,-7.9038,-7.9171,-7.9201,-7.9251,-7.9313,-7.9337,-7.9377,-7.9425,-7.9486,-7.9516,-7.959,-7.9628,-7.9685,-7.9668,-7.9594,-7.982,-7.9715,-7.9818,-7.9819,-7.9864,-7.9861,-8.0181,-7.99,-7.9899,-7.9899,-7.9898,0,-7.9149,-7.9269,-7.9259,-7.9341,-7.9473,-7.945,-7.9581,-7.9596,-7.9632,-7.9713,-7.9664,-7.9741,-7.9717,-7.9793,-7.9781,-7.9905,-7.9924,-7.9923,-7.9917,-7.9924,-7.9924,-7.9947,-7.993,-7.9907,-7.9905,-7.9903,-7.9902,0,-7.9387,-7.9386,-7.9526,-7.9563,-7.9574,-7.967,-7.97,-7.9775,-7.9778,-7.9882,-7.9905,-7.9909,-7.9995,-7.9986,-8.0082,-8.0074,-8.0226,-8.0206,-8.0211,-8.0204,-8.0307,-8.0296,-8.0649,-8.0693,-8.0388,-8.0391,-8.0393,0,-7.9542,-7.9634,-7.9681,-7.9733,-7.976,-7.9845,-7.9894,-7.9876,-7.9928,-7.9988,-8.0056,-8.0139,-8.0202,-8.0343,-8.0353,-8.0426,-8.0404,-8.0523,-8.0414,-8.0418,-8.04,-8.0393,-8.04,-8.0543,-8.0546,-8.0549,-8.0551,0,-7.9817,-7.9812,-7.9886,-7.9961,-8.0022,-8.0079,-8.0131,-8.0176,-8.0162,-8.0224,-8.0312,-8.0363,-8.0462,-8.0543,-8.0613,-8.0634,-8.0589,-8.0587,-8.0613,-8.0619,-8.0616,-8.0615,-8.0264,-8.0577,-8.0574,-8.0572,-8.0571,-8.057,-8.0015,-8.0092,-8.0137,-8.0221,-8.0259,-8.0309,-8.0381,-8.0394,-8.0468,-8.0548,-8.0533,-8.0632,-8.0674,-8.0763,-8.0792,-8.0868,-8.0824,-8.0864,-8.0873,-8.0882,-8.0892,-8.0609,-8.0881,-8.088,-8.088,-8.0879,-8.0878,0,-8.0283,-8.031,-8.0388,-8.0463,-8.0528,-8.0485,-8.054,-8.0597,-8.0685,-8.073,-8.0795,-8.0896,-8.0975,-8.0993,-8.1067,-8.1124,-8.1106,-8.1144,-8.1137,-8.1142,-8.0929,-8.0896,-8.1158,-8.1158,-8.1158,-8.1157,-8.1157,-8.1157,-8.043,-8.0558,-8.0559,-8.0704,-8.0729,-8.0826,-8.0861,-8.0906,-8.0941,-8.1057,-8.1123,-8.1135,-8.1168,-8.1245,-8.1314,-8.1317,-8.1345,-8.1391,-8.1385,-8.1185,-8.1157,-8.113,-8.1099,-8.1398,-8.1399,-8.1591,-8.1592,-8.1594]},{"header":{"parameterUnit":"m.s-1","parameterCategory":1,"la1":30.2991,"la2":30.254,"lo1":-89.0895,"lo2":-89.0444,"dy":0.0017,"dx":0.0017,"nx":28,"ny":28,"refTime":"2023-09-20T09:00:00:Z","depth":0,"parameterNumber":3,"parameterNumberName":"V-component_of_WINDS"},"data":[0,0,0,0,0,0,0,0,0,0,0,0,0,0,0,0,0,0,0,0,0,0,0,0,0,0,0,0,0,0,0,0,0,0,0,0,0,0,0,0,0,0,0,0,0,0,0,0,0,0,0,0,0,0,0,0,0,0,1.7511,1.7511,0,1.7532,1.7533,1.7533,1.7566,1.7567,1.7568,1.7568,1.7585,1.7585,1.7585,0,0,0,0,0,0,0,0,0,0,0,0,0,1.7497,1.7497,1.7511,1.7511,1.7512,1.7532,1.7533,1.7533,1.7566,1.7567,1.7568,1.7568,1.7585,1.7585,1.7585,0,0,0,0,0,0,0,0,0,0,0,0,0,1.7509,1.7497,1.7511,1.7531,1.7533,1.7532,1.7533,1.7533,1.7566,1.7567,1.7568,1.7569,1.7585,1.7585,1.7585,1.7565,0,0,1.7584,1.7584,0,0,0,0,0,0,0,0,1.7508,1.7509,1.7528,1.7529,1.7532,1.7548,1.7534,1.7544,1.7566,1.7553,1.7568,1.7569,1.7572,1.7573,1.7574,1.7566,1.7567,1.7584,1.7584,1.7584,1.7584,0,0,0,0,0,0,0,1.7507,1.7509,1.7519,1.7528,1.753,1.7538,1.7541,1.7536,1.7557,1.7554,1.7557,1.7559,1.7573,1.7574,1.7575,1.7567,1.7584,1.7584,1.7584,1.7584,1.7546,1.7545,0,0,0,0,0,0,1.7504,1.7508,1.7519,1.752,1.7522,1.7537,1.7541,1.7542,1.7557,1.756,1.7558,1.7561,1.7574,1.7575,1.7576,1.7555,1.7584,1.7584,1.7584,1.7547,1.7546,1.7545,0,0,0,0,0,0,1.7504,1.7505,1.7518,1.7515,1.7517,1.7537,1.7538,1.7541,1.7543,1.756,1.7564,1.7556,1.7575,1.7576,1.7568,1.7556,1.7584,1.7584,1.7548,1.7547,1.7545,1.7513,0,0,0,0,0,0,1.7503,1.7504,1.7497,1.7514,1.7517,1.751,1.7537,1.7541,1.7543,1.7547,1.7559,1.7562,1.7576,1.7569,1.7568,1.7556,1.7583,1.7549,1.7547,1.7546,1.7515,1.751,1.7506,0,0,0,0,0,1.7503,1.7486,1.7497,1.7498,1.7509,1.751,1.7511,1.7529,1.7542,1.7535,1.7547,1.7562,1.7558,1.7567,1.7567,1.7555,1.755,1.7548,1.7546,1.7517,1.7511,1.7507,0,0,0,0,0,0,1.7464,1.7488,1.7501,1.7489,1.7497,1.7515,1.7507,1.7522,1.7525,1.7528,1.7549,1.7551,1.7541,1.7548,1.7558,1.7538,1.7556,1.7554,1.7534,1.7529,1.7525,1.7523,1.7583,0,0,0,0,0,1.7455,1.7454,1.7475,1.7463,1.7467,1.7486,1.7487,1.7501,1.7509,1.7512,1.7523,1.753,1.7531,1.753,1.7532,1.7517,1.752,1.7509,1.7504,1.7501,1.7498,1.7493,1.7488,1.7538,1.7538,1.7538,0,0,1.7434,1.7447,1.7445,1.7455,1.7463,1.7463,1.7489,1.7486,1.7485,1.7511,1.7506,1.7514,1.7523,1.7513,1.7508,1.7517,1.7486,1.7498,1.7495,1.7495,1.749,1.7485,1.7481,1.7537,1.7537,1.7537,0,0,1.7396,1.7406,1.7398,1.7407,1.742,1.7434,1.7432,1.7448,1.7456,1.7451,1.7472,1.7471,1.7471,1.7478,1.7481,1.745,1.7464,1.745,1.7427,1.7422,1.7418,1.7414,1.7404,1.74,1.7448,1.7448,1.7448,0,1.7368,1.7369,1.7391,1.7388,1.7393,1.742,1.7412,1.7418,1.743,1.7432,1.7443,1.7447,1.7455,1.7447,1.744,1.7441,1.744,1.7448,1.7417,1.7414,1.7411,1.7401,1.7397,1.7446,1.7446,1.7446,1.7446,0,1.7335,1.7335,1.7327,1.7341,1.7344,1.7338,1.736,1.7361,1.7375,1.7387,1.7383,1.7394,1.74,1.7399,1.7411,1.7393,1.7399,1.7413,1.7431,1.7404,1.7395,1.7391,1.7443,1.7444,1.7444,1.7445,0,0,1.727,1.73,1.7296,1.7304,1.7322,1.7322,1.7319,1.7326,1.7327,1.7335,1.7333,1.7334,1.7349,1.7352,1.7366,1.7361,1.7338,1.7376,1.7377,1.7369,1.732,1.7309,1.7304,1.7348,1.7348,1.7347,1.7319,0,1.7236,1.7232,1.7254,1.7244,1.7246,1.7273,1.727,1.7281,1.7293,1.7296,1.7309,1.7311,1.7329,1.7332,1.7328,1.7341,1.7328,1.7344,1.7346,1.7345,1.7342,1.73,1.7287,1.726,1.7316,1.7316,1.7315,0,1.7194,1.7204,1.7195,1.7216,1.7218,1.7215,1.7225,1.7227,1.724,1.725,1.7256,1.7274,1.7272,1.7291,1.7289,1.7299,1.7301,1.7308,1.7308,1.7307,1.7328,1.7298,1.7252,1.7247,1.731,1.731,1.7311,0,1.7149,1.7159,1.7156,1.7161,1.7186,1.7184,1.7194,1.7208,1.7212,1.7221,1.7224,1.7232,1.7235,1.7241,1.726,1.7272,1.7256,1.7276,1.7264,1.7263,1.7258,1.7257,1.7211,1.726,1.726,1.726,1.726,0,1.7108,1.7101,1.7136,1.7133,1.7128,1.7153,1.7147,1.7159,1.7173,1.7173,1.7198,1.7197,1.7223,1.7226,1.7241,1.7238,1.7239,1.7247,1.7251,1.7244,1.7243,1.7245,1.7247,1.7259,1.726,1.726,1.726,0,1.7055,1.7078,1.7076,1.7101,1.7108,1.7102,1.7123,1.7122,1.7138,1.7139,1.714,1.7164,1.7169,1.719,1.7199,1.7209,1.7201,1.7209,1.7197,1.7199,1.7186,1.7187,1.7138,1.7133,1.7186,1.7185,1.7185,0,1.7026,1.7023,1.7049,1.7052,1.7062,1.7066,1.7072,1.7098,1.7102,1.7119,1.7116,1.7124,1.7131,1.7138,1.7156,1.7163,1.7172,1.7154,1.7172,1.7167,1.7171,1.7171,1.7171,1.7149,1.7149,1.7148,1.7148,0,1.6974,1.6987,1.6994,1.7007,1.7013,1.7023,1.7035,1.7036,1.7065,1.7069,1.7076,1.7082,1.7093,1.71,1.7112,1.7122,1.7139,1.7142,1.714,1.7132,1.7126,1.713,1.7185,1.7143,1.7143,1.7143,1.7144,1.7144,1.6933,1.6932,1.6951,1.6959,1.6971,1.6983,1.6984,1.7001,1.7008,1.702,1.7035,1.704,1.7057,1.7074,1.7083,1.7088,1.7097,1.7093,1.7092,1.7091,1.7088,1.7126,1.709,1.709,1.709,1.709,1.709,0,1.6882,1.6897,1.6904,1.6922,1.6928,1.6948,1.6962,1.6966,1.6971,1.6986,1.6994,1.7002,1.7011,1.703,1.7041,1.704,1.7049,1.7042,1.7042,1.7044,1.7078,1.708,1.7035,1.7035,1.7035,1.7035,1.7035,1.7035,1.6856,1.6856,1.6871,1.6878,1.6892,1.6899,1.6906,1.6917,1.6929,1.6938,1.6946,1.696,1.6977,1.6989,1.6998,1.7004,1.7006,1.6996,1.7005,1.7036,1.7041,1.7046,1.7047,1.6997,1.6997,1.697,1.697,1.6969]}]]